Flag for Guyana Weather past 2 weeks in Linden, Guyana

Now
79 °F

Passing clouds.


Feels Like: 82 °F
Forecast: 75 / 90 °F
Wind: 7 mph from East

Location: Georgetown/Cheddi Jagan International Airport

Current Time: Aug 27, 2014 at 8:16:26 PM

Latest Report: Aug 27, 2014 at 7:00 PM


Visibility: N/A

Pressure: 29.89 "Hg

Humidity: 84%

Dew point: 73 °F

Location of LindenLocation

Historic Weather in Linden — Graph

°F

Linden temperature yesterday

Maximum temperature yesterday: 91 °F (at 1:00 PM)
Minimum temperature yesterday: 73 °F (at 10:00 PM)
Average temperature yesterday: 81 °F

Past Weeks' High & Low Weather Summary

 TemperatureHumidityPressure
High91 °F (Aug 13, 12:00 PM)100% (Aug 12, 9:00 PM)30.01 "Hg (Aug 12, 9:00 PM)
Low72 °F (Aug 13, 5:00 AM)52% (Aug 26, 1:00 PM)29.77 "Hg (Aug 18, 3:00 PM)
Average80 °F86%29.90 "Hg
* Reported Aug 12 7:00 PM — Aug 27 7:00 PM, Linden, Weather by CustomWeather, © 2014

Note: Actual official high and low records may vary slightly from our data, if they occured in-between our weather recording intervals... More about our weather records

Advertising

Linden weather history for previous 24 hours

 ConditionsComfort  
Time TempWeatherWind HumidityBarometerVisibility
7:00 PM
Aug 27
79 °FPassing clouds.7 mph84%29.89 "HgN/A
6:00 PM82 °FPassing clouds.9 mph79%29.86 "HgN/A
5:00 PM86 °FScattered clouds.14 mph70%29.86 "HgN/A
4:00 PM88 °FBroken clouds.14 mph62%29.83 "HgN/A
3:00 PM91 °FBroken clouds.9 mph52%29.86 "HgN/A
2:00 PM90 °FBroken clouds.9 mph55%29.86 "HgN/A
1:00 PM88 °FBroken clouds.9 mph59%29.89 "HgN/A
12:00 PM88 °FPartly sunny.9 mph55%29.92 "HgN/A
10:00 AM86 °FBroken clouds.18 mph59%29.95 "HgN/A
9:00 AM82 °FPartly sunny.14 mph79%29.95 "HgN/A
8:00 AM81 °FPartly sunny.9 mph84%29.92 "HgN/A
7:00 AM75 °FBroken clouds.No wind94%29.92 "HgN/A
6:00 AM73 °FSprinkles. Partly sunny.No wind94%29.89 "Hg5 mi
5:00 AM73 °FPassing clouds.No wind100%29.86 "HgN/A
4:00 AM73 °FPassing clouds.No wind100%29.86 "HgN/A
3:00 AM73 °FPassing clouds.No wind94%29.86 "HgN/A
1:00 AM73 °FPartly cloudy.2 mph100%29.89 "HgN/A
12:00 AM75 °FPassing clouds.No wind94%29.92 "HgN/A
11:00 PM
Aug 26
73 °FPassing clouds.5 mph94%29.92 "HgN/A
10:00 PM73 °FPassing clouds.No wind94%29.92 "Hg6 mi
9:00 PM75 °FThunderstorms. Passing clouds.14 mph89%29.89 "Hg5 mi
8:00 PM77 °FPassing clouds.2 mph89%29.89 "HgN/A
Weather by CustomWeather, © 2014

See weather overviewHow to use our weather pages